R2 (46913 NORAD) Tracking and Keplerian Element Data

This shows tracking and keplerian element data for the satellite.

Feedback or suggestion? Click here.




ElementValue
Catalog46913
NameR2
Epoch Orbit1400
Epoch Day20.69500394
Epoch Year2021
RAAN20.1634
Inclination36.9056
Eccentricity0.0010512
Argument of Perigee226.6612
Mean Anonmoly133.3253
Mean Motion14.99268367
Decay Rate2.98E-06
L11 46913U 20081J 21020.69500394 .00000298 00000-0 30241-4 0 9998
L22 46913 36.9056 20.1634 0010512 226.6612 133.3253 14.99268367 14004

Live tracking and technical data element details for R2 (NORAD 46913). R2 can be tracked NOW for your location showing map with azimuth and elevation plus other details from your city location.

Track the satellite on the map from your city or location and see movement details for azimuth, elevation, latitude, longitude, range, height, and movement on the map or in text.







IsCatalogInMostPopularTable: catalog: 46913, numindb: 30
Update: records affected: 1



GetName: 46913 R2

Hit Count: updated at: Fri, 22 Jan 2021 18:01:34 GMT